Flag for Germany Weather past 2 weeks in Kaufbeuren, Bavaria, Germany

Now
61 °F

Partly sunny.


Feels Like: 61 °F
Forecast: 41 / 69 °F
Wind: 5 mph from East

Location: Altenstadt Airport

Current Time: Aug 21, 2014 at 6:15:19 PM

Latest Report: Aug 21, 2014 at 5:20 PM


Visibility: N/A

Pressure: 30.04 "Hg

Humidity: 55%

Dew point: 45 °F

Location of KaufbeurenLocation

Historic Weather in Kaufbeuren — Graph

°F

Kaufbeuren temperature yesterday

Maximum temperature yesterday: 57 °F (at 12:20 AM)
Minimum temperature yesterday: 52 °F (at 5:20 AM)
Average temperature yesterday: 55 °F

Past Weeks' High & Low Weather Summary

 TemperatureHumidityPressure
High79 °F (Aug 10, 1:20 PM)100% (Aug 7, 7:20 AM)30.18 "Hg (Aug 7, 7:20 AM)
Low45 °F (Aug 17, 6:20 AM)46% (Aug 17, 4:20 PM)29.71 "Hg (Aug 13, 2:20 PM)
Average59 °F80%30.01 "Hg
* Reported Aug 6 4:20 PM — Aug 21 4:20 PM, Kaufbeuren, Weather by CustomWeather, © 2014

Note: Actual official high and low records may vary slightly from our data, if they occured in-between our weather recording intervals... More about our weather records

Advertising

Kaufbeuren weather history for previous 24 hours

 ConditionsComfort  
Time TempWeatherWind HumidityBarometerVisibility
4:20 PM
Aug 21
61 °FBroken clouds.8 mph55%30.04 "HgN/A
3:20 PM61 °FBroken clouds.6 mph55%30.07 "HgN/A
2:20 PM61 °FBroken clouds.8 mph55%30.07 "HgN/A
1:20 PM61 °FScattered clouds.8 mph59%30.07 "HgN/A
12:20 PM61 °FScattered clouds.6 mph55%30.09 "HgN/A
11:20 AM59 °FScattered clouds.9 mph68%30.09 "HgN/A
10:20 AM57 °FScattered clouds.2 mph67%30.09 "HgN/A
9:20 AM55 °FPassing clouds.6 mph77%30.09 "HgN/A
8:20 AM54 °FPassing clouds.7 mph82%30.09 "HgN/A
7:20 AM50 °FPartly sunny.5 mph94%30.09 "HgN/A
6:20 AM50 °FScattered showers. Passing clouds.8 mph94%30.07 "HgN/A
5:20 AM50 °FPassing clouds.10 mph94%30.07 "HgN/A
4:20 AM50 °FCool.12 mph94%30.07 "HgN/A
3:20 AM52 °FCool.6 mph94%30.04 "HgN/A
2:20 AM52 °FCool.3 mph94%30.04 "HgN/A
1:20 AM52 °FCool.2 mph94%30.04 "HgN/A
12:20 AM54 °FCool.3 mph94%30.04 "HgN/A
11:20 PM
Aug 20
54 °FCool.2 mph94%30.04 "HgN/A
10:20 PM54 °FCool.2 mph88%30.04 "HgN/A
9:20 PM54 °FCool.1 mph88%30.04 "HgN/A
8:20 PM55 °FBroken clouds.5 mph88%30.01 "HgN/A
7:20 PM55 °FPartly sunny.3 mph88%30.04 "HgN/A
6:20 PM57 °FPartly sunny.3 mph77%30.01 "HgN/A
Weather by CustomWeather, © 2014

See weather overviewHow to use our weather pages